• In Hungary
  • List of Countries
  • For 7 days
  • Water Temperature
  • Satellite Maps
  • Weather Map
  • News
  • Weather Widgets
  • user-avatar
    Login

    Hourly Weather Dunedin

    Today, 19 January, Friday

    Time Temperature Precipitation Wind Pressure Humidity
    00:00 +17°C° 0.4 mm 2 mps 749 mmHg 98%
    01:00 +17°C° 0.4 mm 2 mps 749 mmHg 98%
    02:00 +16°C° 0.4 mm 2 mps 749 mmHg 98%
    03:00 +16°C° 0.3 mm 2 mps 749 mmHg 98%
    04:00 +16°C° 0.3 mm 2 mps 749 mmHg 98%
    05:00 +16°C° 0 mm 1 mps 749 mmHg 98%
    06:00 +18°C° 0 mm 1 mps 750 mmHg 95%
    07:00 +18°C° 0 mm 2 mps 750 mmHg 93%
    08:00 +18°C° 0 mm 2 mps 750 mmHg 90%
    09:00 +20°C° 0 mm 2 mps 750 mmHg 84%
    10:00 +21°C° 0 mm 3 mps 749 mmHg 78%
    11:00 +24°C° 0 mm 3 mps 749 mmHg 71%
    12:00 +25°C° 0 mm 3 mps 749 mmHg 67%
    13:00 +26°C° 0 mm 4 mps 748 mmHg 64%
    14:00 +26°C° 0 mm 4 mps 748 mmHg 60%
    15:00 +26°C° 0 mm 5 mps 748 mmHg 63%
    16:00 +26°C° 0 mm 5 mps 748 mmHg 66%
    17:00 +25°C° 0 mm 5 mps 747 mmHg 69%
    18:00 +23°C° 0 mm 5 mps 747 mmHg 75%
    19:00 +21°C° 0 mm 5 mps 747 mmHg 81%
    20:00 +20°C° 0 mm 5 mps 747 mmHg 87%
    21:00 +19°C° 0 mm 5 mps 747 mmHg 87%
    22:00 +19°C° 0 mm 5 mps 747 mmHg 87%
    23:00 +18°C° 0 mm 4 mps 747 mmHg 87%

    Tomorrow, 20 January, Saturday

    Time Temperature Precipitation Wind Pressure Humidity
    00:00 +18°C° 0 mm 4 mps 747 mmHg 86%
    01:00 +17°C° 0 mm 3 mps 747 mmHg 85%
    02:00 +17°C° 0 mm 2 mps 747 mmHg 84%
    03:00 +16°C° 0 mm 2 mps 747 mmHg 84%
    04:00 +16°C° 0 mm 2 mps 747 mmHg 84%
    05:00 +16°C° 0 mm 2 mps 747 mmHg 84%
    06:00 +18°C° 0 mm 2 mps 747 mmHg 76%
    07:00 +21°C° 0 mm 2 mps 748 mmHg 68%
    08:00 +24°C° 0 mm 2 mps 748 mmHg 60%
    09:00 +25°C° 0 mm 2 mps 748 mmHg 59%
    10:00 +26°C° 0 mm 3 mps 748 mmHg 58%
    11:00 +27°C° 0 mm 3 mps 749 mmHg 57%
    12:00 +26°C° 0.1 mm 3 mps 749 mmHg 59%
    13:00 +26°C° 0.1 mm 4 mps 749 mmHg 61%
    14:00 +26°C° 0.1 mm 4 mps 749 mmHg 63%
    15:00 +23°C° 0 mm 4 mps 749 mmHg 69%
    16:00 +22°C° 0 mm 3 mps 749 mmHg 75%
    17:00 +21°C° 0 mm 3 mps 749 mmHg 81%
    18:00 +19°C° 0 mm 3 mps 750 mmHg 86%
    19:00 +18°C° 0 mm 2 mps 750 mmHg 90%
    20:00 +17°C° 0 mm 2 mps 751 mmHg 95%
    21:00 +18°C° 0 mm 1 mps 751 mmHg 95%
    22:00 +18°C° 0 mm 1 mps 751 mmHg 95%
    23:00 +18°C° 0 mm 1 mps 752 mmHg 95%

    Day after tomorrow, 21 January, Sunday

    Time Temperature Precipitation Wind Pressure Humidity
    00:00 +16°C° 0 mm 1 mps 752 mmHg 95%
    01:00 +16°C° 0 mm 1 mps 752 mmHg 95%
    02:00 +16°C° 0 mm 1 mps 752 mmHg 96%
    03:00 +16°C° 0 mm 1 mps 752 mmHg 96%
    04:00 +16°C° 0 mm 1 mps 752 mmHg 97%
    05:00 +16°C° 0 mm 1 mps 752 mmHg 97%
    06:00 +18°C° 0 mm 1 mps 753 mmHg 94%
    07:00 +17°C° 0 mm 2 mps 753 mmHg 92%
    08:00 +18°C° 0 mm 2 mps 753 mmHg 89%
    09:00 +19°C° 0 mm 3 mps 753 mmHg 87%
    10:00 +19°C° 0 mm 3 mps 753 mmHg 85%
    11:00 +20°C° 0 mm 4 mps 752 mmHg 83%
    12:00 +20°C° 0 mm 5 mps 752 mmHg 82%
    13:00 +20°C° 0 mm 5 mps 752 mmHg 81%
    14:00 +21°C° 0 mm 5 mps 751 mmHg 80%
    15:00 +20°C° 0.1 mm 5 mps 751 mmHg 83%
    16:00 +20°C° 0.1 mm 5 mps 751 mmHg 86%
    17:00 +19°C° 0.1 mm 5 mps 751 mmHg 89%
    18:00 +19°C° 0 mm 5 mps 751 mmHg 91%
    19:00 +17°C° 0 mm 5 mps 751 mmHg 94%
    20:00 +16°C° 0 mm 5 mps 751 mmHg 97%
    21:00 +16°C° 0 mm 5 mps 751 mmHg 97%
    22:00 +17°C° 0 mm 4 mps 750 mmHg 98%
    23:00 +17°C° 0 mm 4 mps 750 mmHg 98%

    22 January, Monday

    Time Temperature Precipitation Wind Pressure Humidity
    00:00 +15°C° 0 mm 4 mps 750 mmHg 98%
    01:00 +16°C° 0 mm 3 mps 749 mmHg 98%
    02:00 +16°C° 0 mm 3 mps 749 mmHg 98%
    03:00 +16°C° 0 mm 3 mps 748 mmHg 98%
    04:00 +16°C° 0 mm 3 mps 748 mmHg 98%
    05:00 +16°C° 0 mm 2 mps 748 mmHg 97%
    06:00 +18°C° 0 mm 2 mps 748 mmHg 90%
    07:00 +20°C° 0 mm 2 mps 748 mmHg 82%
    08:00 +22°C° 0 mm 3 mps 748 mmHg 75%
    09:00 +24°C° 0.1 mm 3 mps 747 mmHg 72%
    10:00 +25°C° 0.1 mm 3 mps 747 mmHg 70%
    11:00 +25°C° 0.1 mm 3 mps 747 mmHg 67%
    12:00 +25°C° 0.6 mm 3 mps 746 mmHg 70%
    13:00 +25°C° 0.6 mm 3 mps 746 mmHg 73%
    14:00 +26°C° 0.6 mm 2 mps 746 mmHg 76%
    15:00 +24°C° 1.2 mm 2 mps 746 mmHg 81%
    16:00 +23°C° 1.2 mm 2 mps 746 mmHg 86%
    17:00 +21°C° 1.2 mm 2 mps 746 mmHg 91%
    18:00 +21°C° 0.3 mm 1 mps 746 mmHg 93%
    19:00 +20°C° 0.3 mm 1 mps 747 mmHg 94%
    20:00 +19°C° 0.3 mm 1 mps 747 mmHg 95%
    21:00 +19°C° 0 mm 1 mps 747 mmHg 95%
    22:00 +19°C° 0 mm 1 mps 747 mmHg 95%
    23:00 +18°C° 0 mm 1 mps 748 mmHg 95%

    23 January, Tuesday

    Time Temperature Precipitation Wind Pressure Humidity
    00:00 +18°C° 0 mm 1 mps 747 mmHg 94%
    01:00 +17°C° 0 mm 2 mps 747 mmHg 94%
    02:00 +17°C° 0 mm 2 mps 747 mmHg 94%
    03:00 +17°C° 0 mm 2 mps 747 mmHg 93%
    04:00 +17°C° 0 mm 3 mps 747 mmHg 93%
    05:00 +17°C° 0 mm 3 mps 747 mmHg 93%
    06:00 +19°C° 0 mm 3 mps 747 mmHg 84%
    07:00 +22°C° 0 mm 3 mps 747 mmHg 75%
    08:00 +25°C° 0 mm 3 mps 747 mmHg 66%
    09:00 +27°C° 0 mm 4 mps 747 mmHg 59%
    10:00 +29°C° 0 mm 4 mps 747 mmHg 51%
    11:00 +32°C° 0 mm 4 mps 747 mmHg 44%
    12:00 +32°C° 0 mm 5 mps 746 mmHg 44%
    13:00 +33°C° 0 mm 6 mps 746 mmHg 43%
    14:00 +33°C° 0 mm 6 mps 745 mmHg 42%
    15:00 +32°C° 0 mm 6 mps 745 mmHg 47%
    16:00 +30°C° 0 mm 6 mps 745 mmHg 52%
    17:00 +29°C° 0 mm 6 mps 745 mmHg 58%
    18:00 +27°C° 0.1 mm 5 mps 745 mmHg 61%
    19:00 +25°C° 0.1 mm 4 mps 745 mmHg 65%
    20:00 +24°C° 0.1 mm 3 mps 746 mmHg 69%
    21:00 +22°C° 0 mm 3 mps 746 mmHg 70%
    22:00 +20°C° 0 mm 3 mps 746 mmHg 71%
    23:00 +19°C° 0 mm 2 mps 746 mmHg 72%

    24 January, Wednesday

    Time Temperature Precipitation Wind Pressure Humidity
    00:00 +19°C° 0 mm 2 mps 745 mmHg 72%
    01:00 +19°C° 0 mm 2 mps 745 mmHg 71%
    02:00 +18°C° 0 mm 2 mps 745 mmHg 71%
    03:00 +18°C° 0 mm 2 mps 745 mmHg 73%
    04:00 +18°C° 0 mm 2 mps 745 mmHg 76%
    05:00 +18°C° 0 mm 2 mps 745 mmHg 78%
    06:00 +19°C° 0.3 mm 2 mps 745 mmHg 79%
    07:00 +20°C° 0.3 mm 3 mps 746 mmHg 81%
    08:00 +21°C° 0.3 mm 3 mps 746 mmHg 82%
    09:00 +22°C° 0.3 mm 4 mps 747 mmHg 81%
    10:00 +22°C° 0.3 mm 4 mps 747 mmHg 79%
    11:00 +23°C° 0.3 mm 5 mps 747 mmHg 78%
    12:00 +22°C° 0.4 mm 5 mps 748 mmHg 79%
    13:00 +22°C° 0.4 mm 5 mps 748 mmHg 79%
    14:00 +21°C° 0.4 mm 5 mps 748 mmHg 80%
    15:00 +21°C° 0.1 mm 4 mps 748 mmHg 80%
    16:00 +20°C° 0.1 mm 4 mps 749 mmHg 81%
    17:00 +20°C° 0.1 mm 3 mps 749 mmHg 81%
    18:00 +19°C° 0 mm 3 mps 750 mmHg 84%
    19:00 +18°C° 0 mm 2 mps 750 mmHg 88%
    20:00 +16°C° 0 mm 2 mps 751 mmHg 92%
    21:00 +16°C° 0 mm 2 mps 751 mmHg 93%
    22:00 +16°C° 0 mm 2 mps 751 mmHg 93%
    23:00 +14°C° 0 mm 3 mps 751 mmHg 94%
    Show more